ALZ991 LEGE-LEZL

Flight info

Callsign ALZ991
Flight time 1h 20m
Altitude 33000
Route BCN M985 YES N747 BLN
Aircraft CRJX/M-SDFGIRWY/S

Departure

Time 2026-04-23 10:07
Airport Girona-Costa Brava Airport (LEGE)

Arrival

Time 2026-04-23 11:28
Airport Seville Airport (LEZL)
Time Latitude Longitude Altitude Speed Heading
2026-04-23 09:44 41.89749 2.76302 424 ft 0 kts 105°
2026-04-23 10:03 41.89747 2.76324 425 ft 4 kts 80°
2026-04-23 10:03 41.89789 2.76352 426 ft 10 kts 355°
2026-04-23 10:03 41.89870 2.76301 427 ft 16 kts 315°
2026-04-23 10:03 41.89984 2.76244 429 ft 21 kts 11°
2026-04-23 10:04 41.90140 2.76305 433 ft 26 kts 17°
2026-04-23 10:04 41.90329 2.76372 439 ft 29 kts 15°
2026-04-23 10:04 41.90528 2.76446 447 ft 31 kts 15°
2026-04-23 10:04 41.90744 2.76528 457 ft 33 kts 15°
2026-04-23 10:05 41.90981 2.76617 466 ft 37 kts 15°
2026-04-23 10:05 41.91242 2.76716 468 ft 38 kts 15°
2026-04-23 10:05 41.91414 2.76747 467 ft 18 kts 338°
2026-04-23 10:05 41.91536 2.76670 468 ft 15 kts 317°
2026-04-23 10:06 41.91544 2.76612 469 ft 9 kts 242°
2026-04-23 10:06 41.91492 2.76585 470 ft 0 kts 194°
2026-04-23 10:06 41.91433 2.76561 471 ft 32 kts 197°
2026-04-23 10:07 41.90995 2.76393 467 ft 98 kts 194°
2026-04-23 10:07 41.90128 2.76056 432 ft 160 kts 195°
2026-04-23 10:07 41.89001 2.75604 1043 ft 176 kts 199°
2026-04-23 10:07 41.87809 2.75022 1900 ft 186 kts 202°
2026-04-23 10:08 41.86723 2.74388 3162 ft 173 kts 205°
2026-04-23 10:08 41.85519 2.73596 3705 ft 208 kts 207°
2026-04-23 10:08 41.84250 2.72769 4634 ft 222 kts 199°
2026-04-23 10:09 41.80213 2.71321 4941 ft 342 kts 198°
2026-04-23 10:09 41.77979 2.70275 6311 ft 351 kts 199°
2026-04-23 10:09 41.75843 2.69234 7248 ft 327 kts 199°
2026-04-23 10:09 41.73700 2.68193 7300 ft 327 kts 199°
2026-04-23 10:10 41.71627 2.67182 7970 ft 308 kts 199°
2026-04-23 10:10 41.69678 2.66231 8506 ft 294 kts 199°
2026-04-23 10:10 41.67786 2.65291 8767 ft 291 kts 201°
2026-04-23 10:10 41.66164 2.63655 8770 ft 299 kts 231°
2026-04-23 10:11 41.65330 2.61102 8794 ft 315 kts 259°
2026-04-23 10:11 41.65506 2.58107 8899 ft 334 kts 287°
2026-04-23 10:11 41.66622 2.55281 9149 ft 346 kts 300°
2026-04-23 10:11 41.68049 2.52679 9351 ft 359 kts 316°
2026-04-23 10:12 41.70202 2.50913 9589 ft 369 kts 338°
2026-04-23 10:12 41.72353 2.49176 10415 ft 356 kts 315°
2026-04-23 10:12 41.73661 2.46571 11380 ft 334 kts 288°
2026-04-23 10:12 41.73946 2.43651 12255 ft 312 kts 262°
2026-04-23 10:13 41.73277 2.40904 12403 ft 314 kts 234°
2026-04-23 10:13 41.71709 2.38908 12555 ft 317 kts 207°
2026-04-23 10:13 41.69631 2.38105 13249 ft 306 kts 189°
2026-04-23 10:13 41.67571 2.37670 13994 ft 296 kts 188°
2026-04-23 10:14 41.65583 2.37252 14736 ft 285 kts 188°
2026-04-23 10:14 41.63693 2.36854 15468 ft 274 kts 188°
2026-04-23 10:14 41.61895 2.36293 16199 ft 262 kts 200°
2026-04-23 10:14 41.60258 2.35423 16939 ft 247 kts 200°
2026-04-23 10:15 41.58716 2.34573 17676 ft 231 kts 200°
2026-04-23 10:15 41.57371 2.33613 18387 ft 213 kts 208°
2026-04-23 10:15 41.56177 2.32669 19062 ft 195 kts 206°
2026-04-23 10:15 41.54953 2.31747 19357 ft 215 kts 206°
2026-04-23 10:16 41.53621 2.30755 19911 ft 221 kts 206°
2026-04-23 10:16 41.52336 2.29781 20829 ft 210 kts 207°
2026-04-23 10:16 41.51113 2.28779 21524 ft 206 kts 209°
2026-04-23 10:16 41.49876 2.27722 21744 ft 227 kts 209°
2026-04-23 10:17 41.48474 2.26552 22121 ft 238 kts 209°
2026-04-23 10:17 41.47047 2.25399 22396 ft 256 kts 207°
2026-04-23 10:17 41.45420 2.24227 22829 ft 267 kts 204°
2026-04-23 10:17 41.43852 2.23044 23771 ft 259 kts 207°
2026-04-23 10:18 41.42264 2.21815 24208 ft 270 kts 207°
2026-04-23 10:18 41.40620 2.20546 24665 ft 280 kts 207°
2026-04-23 10:18 41.38899 2.19217 25126 ft 291 kts 208°
2026-04-23 10:18 41.37123 2.17849 25585 ft 301 kts 208°
2026-04-23 10:19 41.35272 2.16420 26046 ft 312 kts 208°
2026-04-23 10:19 41.33367 2.14954 26504 ft 322 kts 208°
2026-04-23 10:19 41.31420 2.13455 26957 ft 332 kts 208°
2026-04-23 10:19 41.29371 2.11880 27419 ft 343 kts 208°
2026-04-23 10:20 41.27309 2.10298 27868 ft 353 kts 208°
2026-04-23 10:20 41.25143 2.08637 28327 ft 363 kts 208°
2026-04-23 10:20 41.22908 2.06926 28785 ft 374 kts 208°
2026-04-23 10:20 41.20630 2.05182 29240 ft 384 kts 208°
2026-04-23 10:21 41.18293 2.03397 29694 ft 394 kts 208°
2026-04-23 10:21 41.15890 2.01563 30147 ft 404 kts 208°
2026-04-23 10:21 41.13457 1.99712 30596 ft 413 kts 208°
2026-04-23 10:21 41.10923 1.97783 31052 ft 421 kts 208°
2026-04-23 10:22 41.08482 1.95686 31481 ft 429 kts 218°
2026-04-23 10:22 41.06576 1.92614 31938 ft 438 kts 236°
2026-04-23 10:22 41.05074 1.89072 32392 ft 442 kts 237°
2026-04-23 10:22 41.03546 1.85513 32817 ft 445 kts 236°
2026-04-23 10:23 41.00400 1.78232 32906 ft 461 kts 236°
2026-04-23 10:23 40.97194 1.70806 32903 ft 468 kts 236°
2026-04-23 10:24 40.93996 1.63405 32900 ft 460 kts 236°
2026-04-23 10:24 40.90834 1.56111 32900 ft 455 kts 236°
2026-04-23 10:25 40.87689 1.48877 32910 ft 454 kts 236°
2026-04-23 10:25 40.83947 1.42312 32911 ft 447 kts 225°
2026-04-23 10:26 40.79823 1.36180 32909 ft 448 kts 225°
2026-04-23 10:26 40.75672 1.30127 32911 ft 448 kts 224°
2026-04-23 10:27 40.71475 1.24052 32910 ft 448 kts 224°
2026-04-23 10:27 40.67290 1.18009 32910 ft 448 kts 224°
2026-04-23 10:28 40.63108 1.11983 32915 ft 448 kts 224°
2026-04-23 10:28 40.58897 1.05931 32914 ft 449 kts 224°
2026-04-23 10:29 40.54693 0.99901 32913 ft 449 kts 224°
2026-04-23 10:29 40.50481 0.93877 32912 ft 449 kts 224°
2026-04-23 10:30 40.46256 0.87844 32911 ft 449 kts 223°
2026-04-23 10:30 40.42028 0.81827 32909 ft 450 kts 223°
2026-04-23 10:31 40.37790 0.75806 32908 ft 450 kts 223°
2026-04-23 10:31 40.33546 0.69784 32906 ft 451 kts 223°
2026-04-23 10:32 40.29294 0.63767 32905 ft 451 kts 223°
2026-04-23 10:32 40.25021 0.57731 32903 ft 452 kts 223°
2026-04-23 10:33 40.20760 0.51725 32903 ft 452 kts 223°
2026-04-23 10:33 40.16492 0.45723 32904 ft 453 kts 223°
2026-04-23 10:34 40.12191 0.39686 32905 ft 453 kts 223°
2026-04-23 10:34 40.07920 0.33704 32904 ft 454 kts 222°
2026-04-23 10:35 40.03595 0.27659 32903 ft 454 kts 222°
2026-04-23 10:35 39.99307 0.21673 32903 ft 455 kts 222°
2026-04-23 10:36 39.94986 0.15649 32904 ft 455 kts 222°
2026-04-23 10:36 39.90527 0.09872 32891 ft 446 kts 210°
2026-04-23 10:37 39.87734 0.08274 32913 ft 434 kts 190°
2026-04-23 10:37 39.84754 0.07734 32908 ft 434 kts 189°
2026-04-23 10:37 39.81934 0.06255 32913 ft 441 kts 209°
2026-04-23 10:37 39.79677 0.03517 32915 ft 452 kts 229°
2026-04-23 10:38 39.78255 -0.00156 32916 ft 465 kts 249°
2026-04-23 10:38 39.77574 -0.04333 32908 ft 469 kts 251°
2026-04-23 10:38 39.76242 -0.08081 32914 ft 458 kts 232°
2026-04-23 10:38 39.74011 -0.10988 32916 ft 449 kts 211°
2026-04-23 10:39 39.68668 -0.15040 32904 ft 453 kts 213°
2026-04-23 10:39 39.64041 -0.20697 32915 ft 459 kts 221°
2026-04-23 10:40 39.59471 -0.26552 32914 ft 462 kts 221°
2026-04-23 10:40 39.55499 -0.33118 32915 ft 466 kts 231°
2026-04-23 10:41 39.51659 -0.39892 32914 ft 467 kts 231°
2026-04-23 10:41 39.48056 -0.46832 32920 ft 465 kts 228°
2026-04-23 10:42 39.44042 -0.53481 32914 ft 467 kts 230°
2026-04-23 10:42 39.40125 -0.60182 32914 ft 468 kts 230°
2026-04-23 10:43 39.36223 -0.66904 32912 ft 468 kts 230°
2026-04-23 10:43 39.32330 -0.73610 32911 ft 468 kts 230°
2026-04-23 10:44 39.28428 -0.80323 32911 ft 468 kts 230°
2026-04-23 10:44 39.24513 -0.87047 32910 ft 469 kts 230°
2026-04-23 10:45 39.20591 -0.93763 32911 ft 470 kts 230°
2026-04-23 10:45 39.16650 -1.00503 32912 ft 471 kts 230°
2026-04-23 10:46 39.12685 -1.07272 32912 ft 471 kts 230°
2026-04-23 10:46 39.08749 -1.13974 32913 ft 472 kts 230°
2026-04-23 10:47 39.04787 -1.20702 32916 ft 472 kts 230°
2026-04-23 10:47 39.00819 -1.27435 32915 ft 472 kts 230°
2026-04-23 10:48 38.96846 -1.34155 32924 ft 472 kts 230°
2026-04-23 10:48 38.92877 -1.40858 32925 ft 473 kts 230°
2026-04-23 10:49 38.88881 -1.47591 32931 ft 473 kts 230°
2026-04-23 10:49 38.84875 -1.54326 32935 ft 475 kts 230°
2026-04-23 10:50 38.80883 -1.61024 32936 ft 476 kts 230°
2026-04-23 10:50 38.76838 -1.67798 32933 ft 477 kts 230°
2026-04-23 10:51 38.72797 -1.74554 32933 ft 478 kts 230°
2026-04-23 10:51 38.68739 -1.81321 32931 ft 479 kts 230°
2026-04-23 10:52 38.64665 -1.88100 32930 ft 480 kts 230°
2026-04-23 10:52 38.60606 -1.94841 32927 ft 481 kts 230°
2026-04-23 10:53 38.56510 -2.01624 32924 ft 482 kts 230°
2026-04-23 10:53 38.52385 -2.08445 32920 ft 482 kts 230°
2026-04-23 10:54 38.48294 -2.15199 32916 ft 482 kts 230°
2026-04-23 10:54 38.44196 -2.21949 32913 ft 483 kts 230°
2026-04-23 10:55 38.40071 -2.28729 32909 ft 483 kts 230°
2026-04-23 10:55 38.36491 -2.35925 32910 ft 485 kts 250°
2026-04-23 10:56 38.34783 -2.44264 32916 ft 488 kts 256°
2026-04-23 10:56 38.33334 -2.52775 32915 ft 489 kts 257°
2026-04-23 10:57 38.31961 -2.61211 32915 ft 489 kts 257°
2026-04-23 10:57 38.30593 -2.69697 32913 ft 488 kts 256°
2026-04-23 10:58 38.29224 -2.78168 32911 ft 487 kts 257°
2026-04-23 10:58 38.27860 -2.86573 32909 ft 485 kts 257°
2026-04-23 10:59 38.26489 -2.94983 32908 ft 484 kts 257°
2026-04-23 10:59 38.25118 -3.03365 32907 ft 483 kts 257°
2026-04-23 11:00 38.23743 -3.11711 32907 ft 482 kts 257°
2026-04-23 11:00 38.22360 -3.20079 32906 ft 481 kts 257°
2026-04-23 11:01 38.20984 -3.28359 32906 ft 480 kts 257°
2026-04-23 11:01 38.19601 -3.36651 32906 ft 479 kts 257°
2026-04-23 11:02 38.18211 -3.44945 32906 ft 479 kts 257°
2026-04-23 11:02 38.16816 -3.53242 32906 ft 478 kts 257°
2026-04-23 11:03 38.15424 -3.61449 32905 ft 478 kts 256°
2026-04-23 11:03 38.13736 -3.69644 32905 ft 477 kts 253°
2026-04-23 11:04 38.12022 -3.77779 32905 ft 477 kts 253°
2026-04-23 11:04 38.10302 -3.85883 32919 ft 476 kts 254°
2026-04-23 11:05 38.08571 -3.94015 32918 ft 477 kts 254°
2026-04-23 11:05 38.06826 -4.02181 32917 ft 477 kts 254°
2026-04-23 11:06 38.05102 -4.10211 31820 ft 456 kts 254°
2026-04-23 11:06 38.04283 -4.14020 31189 ft 443 kts 254°
2026-04-23 11:06 38.03486 -4.17722 30561 ft 432 kts 254°
2026-04-23 11:07 38.02695 -4.21382 29926 ft 423 kts 254°
2026-04-23 11:07 38.01923 -4.24946 29295 ft 414 kts 254°
2026-04-23 11:07 38.01166 -4.28439 28664 ft 407 kts 254°
2026-04-23 11:07 38.00423 -4.31862 28035 ft 400 kts 254°
2026-04-23 11:08 37.99696 -4.35204 27409 ft 393 kts 254°
2026-04-23 11:08 37.98973 -4.38516 26780 ft 387 kts 255°
2026-04-23 11:08 37.98262 -4.41775 26152 ft 381 kts 255°
2026-04-23 11:08 37.97557 -4.45006 25520 ft 376 kts 255°
2026-04-23 11:09 37.96865 -4.48171 24893 ft 371 kts 255°
2026-04-23 11:09 37.96177 -4.51315 24262 ft 367 kts 255°
2026-04-23 11:09 37.95499 -4.54409 23634 ft 363 kts 255°
2026-04-23 11:09 37.94827 -4.57475 23005 ft 359 kts 255°
2026-04-23 11:10 37.94161 -4.60501 22378 ft 355 kts 255°
2026-04-23 11:10 37.93499 -4.63512 21747 ft 351 kts 255°
2026-04-23 11:10 37.92850 -4.66454 21126 ft 348 kts 255°
2026-04-23 11:10 37.92195 -4.69420 20496 ft 345 kts 255°
2026-04-23 11:11 37.91550 -4.72338 19870 ft 342 kts 255°
2026-04-23 11:11 37.90913 -4.75220 19247 ft 339 kts 255°
2026-04-23 11:11 37.90275 -4.78095 18620 ft 337 kts 256°
2026-04-23 11:11 37.89652 -4.80905 18001 ft 334 kts 256°
2026-04-23 11:12 37.89022 -4.83746 17369 ft 332 kts 256°
2026-04-23 11:12 37.88405 -4.86538 16744 ft 330 kts 256°
2026-04-23 11:12 37.87787 -4.89323 16116 ft 328 kts 256°
2026-04-23 11:12 37.87170 -4.92095 15487 ft 326 kts 256°
2026-04-23 11:13 37.86555 -4.94853 14858 ft 324 kts 255°
2026-04-23 11:13 37.85943 -4.97598 14228 ft 322 kts 256°
2026-04-23 11:13 37.85338 -5.00295 13605 ft 320 kts 256°
2026-04-23 11:13 37.84731 -5.03008 12975 ft 319 kts 256°
2026-04-23 11:14 37.84123 -5.05716 12343 ft 317 kts 256°
2026-04-23 11:14 37.83522 -5.08388 11716 ft 316 kts 256°
2026-04-23 11:14 37.82926 -5.11035 11092 ft 314 kts 256°
2026-04-23 11:14 37.82322 -5.13722 10456 ft 313 kts 256°
2026-04-23 11:15 37.81729 -5.16362 9829 ft 312 kts 256°
2026-04-23 11:15 37.81137 -5.18987 9203 ft 311 kts 256°
2026-04-23 11:15 37.80543 -5.21613 8575 ft 310 kts 256°
2026-04-23 11:15 37.79948 -5.24239 7945 ft 309 kts 256°
2026-04-23 11:16 37.79356 -5.26853 7316 ft 308 kts 256°
2026-04-23 11:16 37.78772 -5.29431 6949 ft 297 kts 256°
2026-04-23 11:16 37.78220 -5.31855 6923 ft 277 kts 256°
2026-04-23 11:16 37.77697 -5.34141 6922 ft 258 kts 257°
2026-04-23 11:17 37.77216 -5.36247 6924 ft 241 kts 257°
2026-04-23 11:17 37.76651 -5.38173 6884 ft 229 kts 240°
2026-04-23 11:17 37.75610 -5.39605 6932 ft 214 kts 226°
2026-04-23 11:17 37.74565 -5.40854 6928 ft 199 kts 226°
2026-04-23 11:18 37.73592 -5.42007 6927 ft 185 kts 226°
2026-04-23 11:18 37.72671 -5.43094 6763 ft 182 kts 226°
2026-04-23 11:18 37.71712 -5.44226 6361 ft 193 kts 226°
2026-04-23 11:18 37.70718 -5.45406 6341 ft 198 kts 226°
2026-04-23 11:19 37.69720 -5.46572 6883 ft 198 kts 225°
2026-04-23 11:19 37.68624 -5.47825 6937 ft 227 kts 225°
2026-04-23 11:19 37.67379 -5.49234 6532 ft 251 kts 224°
2026-04-23 11:19 37.66016 -5.50711 6047 ft 269 kts 218°
2026-04-23 11:20 37.64256 -5.51732 5580 ft 282 kts 200°
2026-04-23 11:20 37.62382 -5.52510 5107 ft 287 kts 199°
2026-04-23 11:20 37.60467 -5.53260 4635 ft 291 kts 198°
2026-04-23 11:20 37.58514 -5.54003 4158 ft 294 kts 198°
2026-04-23 11:21 37.56577 -5.54724 3685 ft 291 kts 197°
2026-04-23 11:21 37.54645 -5.55370 3209 ft 287 kts 196°
2026-04-23 11:21 37.52711 -5.56004 2727 ft 283 kts 196°
2026-04-23 11:21 37.50841 -5.56614 2422 ft 273 kts 196°
2026-04-23 11:22 37.49062 -5.57195 2397 ft 254 kts 196°
2026-04-23 11:22 37.47413 -5.57730 2398 ft 237 kts 196°
2026-04-23 11:22 37.45862 -5.58229 2399 ft 221 kts 196°
2026-04-23 11:22 37.44418 -5.58690 2401 ft 211 kts 196°
2026-04-23 11:23 37.43019 -5.59132 2402 ft 206 kts 196°
2026-04-23 11:23 37.41681 -5.59682 2358 ft 200 kts 213°
2026-04-23 11:23 37.40824 -5.60965 2372 ft 193 kts 251°
2026-04-23 11:23 37.40789 -5.62667 2409 ft 199 kts 286°
2026-04-23 11:24 37.41160 -5.64389 2424 ft 208 kts 283°
2026-04-23 11:24 37.41414 -5.66197 2414 ft 211 kts 278°
2026-04-23 11:24 37.41571 -5.68043 2413 ft 208 kts 275°
2026-04-23 11:24 37.41669 -5.69813 2406 ft 194 kts 274°
2026-04-23 11:25 37.41734 -5.71463 2405 ft 182 kts 274°
2026-04-23 11:25 37.41777 -5.73018 2348 ft 175 kts 273°
2026-04-23 11:25 37.41802 -5.74512 2149 ft 169 kts 272°
2026-04-23 11:25 37.41814 -5.75987 1926 ft 166 kts 272°
2026-04-23 11:26 37.41819 -5.77422 1712 ft 159 kts 271°
2026-04-23 11:26 37.41821 -5.78786 1496 ft 152 kts 271°
2026-04-23 11:26 37.41820 -5.80076 1293 ft 145 kts 271°
2026-04-23 11:26 37.41818 -5.81349 1102 ft 144 kts 271°
2026-04-23 11:27 37.41815 -5.82609 910 ft 140 kts 271°
2026-04-23 11:27 37.41811 -5.83817 720 ft 137 kts 271°
2026-04-23 11:27 37.41807 -5.85009 537 ft 134 kts 271°
2026-04-23 11:27 37.41805 -5.86178 358 ft 132 kts 271°
2026-04-23 11:28 37.41801 -5.87326 150 ft 132 kts 271°
2026-04-23 11:28 37.41796 -5.88455 110 ft 120 kts 270°
2026-04-23 11:28 37.41801 -5.89218 110 ft 24 kts 267°
2026-04-23 11:28 37.41794 -5.89373 110 ft 15 kts 269°
2026-04-23 11:29 37.41793 -5.89542 110 ft 23 kts 269°
2026-04-23 11:29 37.41826 -5.89732 110 ft 24 kts 301°
2026-04-23 11:29 37.41937 -5.89844 110 ft 14 kts 341°
2026-04-23 11:29 37.42051 -5.89790 110 ft 23 kts 46°
2026-04-23 11:30 37.42152 -5.89659 110 ft 18 kts 36°
2026-04-23 11:30 37.42260 -5.89626 110 ft 12 kts
2026-04-23 11:30 37.42327 -5.89581 110 ft 9 kts 43°
2026-04-23 11:30 37.42334 -5.89573 110 ft 0 kts 43°